RH
56 53 50 49 49 49 50 51 48 37 24 16 12 8 7 7 7 9 10 11 11 10 10 9 9 9 9 9 8 8 8 9 9 9 10 10 10 11 12 13 15 17 19 21 21 21 21 21 21 20 19 18 16 14 13 11 10 8 7 7 7 7 7 6 7 7 7 7 7 7 8 9 10 11
61 59 55 53 52 51 52 54 54 49 35 23 16 12 8 7 7 8 9 11 12 11 11 10 9 9 9 10 9 8 9 9 9 10 10 10 10 11 11 13 16 18 20 22 22 23 23 22 22 20 18 17 15 14 13 12 10 8 8 7 7 7 7 7 7 7 7 7 7 8 8 9 10 11
65 63 60 59 57 55 54 54 57 57 47 33 22 16 11 7 7 8 8 10 12 12 12 11 9 9 9 10 10 9 9 9 10 10 10 10 11 11 11 13 16 19 21 23 24 24 24 23 23 21 18 16 15 15 13 12 10 9 8 7 7 7 7 7 7 7 8 7 8 8 8 10 11 11
67 66 65 64 63 61 58 57 58 60 56 44 30 21 15 10 7 7 8 9 11 12 12 12 10 9 9 9 10 10 10 10 10 10 10 11 11 11 12 14 17 20 22 24 25 26 26 25 23 20 18 17 16 16 14 13 11 9 8 7 7 7 7 7 7 7 8 8 8 8 9 10 11 12
68 68 69 69 68 67 65 62 61 63 63 55 42 29 20 15 10 7 8 8 9 11 13 13 12 10 9 9 9 9 10 10 11 11 11 11 11 11 12 14 17 21 23 25 27 27 27 26 24 21 19 18 18 17 16 14 12 10 8 8 8 7 7 8 7 8 8 8 8 9 9 10 11 12
67 68 71 72 71 72 71 67 65 65 65 62 53 40 28 20 14 9 7 8 8 10 11 13 13 11 10 9 9 9 9 10 11 11 11 11 11 12 12 15 18 21 24 26 27 28 28 27 26 24 22 21 20 19 18 15 12 10 9 8 8 8 8 8 8 8 8 8 9 9 10 11 12 12
66 67 72 75 72 72 74 72 68 66 68 67 62 51 38 28 20 12 8 8 8 9 10 12 13 13 11 10 10 10 9 10 11 11 11 11 11 12 13 16 18 21 24 26 26 27 28 29 28 27 25 24 23 22 19 16 13 11 9 8 9 8 8 8 8 8 8 9 9 9 10 11 12 13
67 68 76 80 76 73 74 74 71 69 70 70 66 60 49 36 27 18 10 7 8 9 9 10 12 14 13 11 10 10 10 11 12 11 11 11 11 13 14 16 18 21 24 26 26 27 29 31 31 30 29 27 26 23 19 16 13 11 10 9 9 9 9 9 8 9 9 9 9 9 10 11 12 13
70 70 78 84 81 76 75 76 74 71 71 71 68 64 56 45 34 26 16 9 8 9 9 9 11 13 14 13 10 10 11 12 12 12 11 11 13 14 14 16 17 20 23 25 25 27 30 33 33 33 32 29 27 23 19 16 14 12 10 10 9 10 9 9 9 9 9 9 10 10 10 11 13 14
72 72 79 86 84 79 76 76 76 74 72 72 72 69 61 52 42 33 24 15 8 8 10 9 10 12 14 14 12 11 12 13 12 13 12 12 13 14 14 15 17 19 23 25 25 27 32 35 35 35 33 30 27 23 19 17 15 13 12 11 10 11 10 9 10 9 9 10 10 10 11 11 13 14
74 73 79 87 87 82 78 76 75 76 75 74 77 77 68 57 50 42 33 23 13 9 10 10 10 11 12 14 14 12 12 14 14 14 13 13 14 15 15 16 17 20 23 24 25 28 32 35 37 37 35 31 27 23 20 18 16 15 14 12 12 12 11 10 10 10 10 10 10 10 11 12 13 14
80 77 82 92 94 88 82 77 74 76 79 79 82 86 78 64 56 50 42 34 22 12 9 10 10 10 11 13 15 14 13 15 16 15 14 15 17 18 18 17 17 19 22 24 26 29 32 36 38 39 36 32 28 24 22 21 19 18 16 15 14 13 12 12 11 10 10 10 11 11 11 12 13 14
92 87 89 97 100 96 90 83 78 78 83 85 86 91 86 71 60 57 51 44 36 21 11 10 11 11 11 12 15 16 15 15 18 18 17 17 20 22 22 20 19 19 21 25 28 31 33 36 41 42 40 37 33 30 28 26 25 23 20 18 17 16 15 13 12 11 11 11 11 11 11 12 13 14
98 98 98 99 101 101 97 89 84 84 88 93 92 90 88 76 65 62 59 53 47 34 18 10 10 11 11 12 14 16 16 15 17 19 19 20 22 24 24 23 21 19 20 25 30 33 34 37 42 45 44 44 42 38 36 34 31 29 26 23 21 19 17 15 14 12 12 11 11 11 12 12 13 14
98 102 101 101 99 99 98 92 89 89 92 98 99 90 85 79 69 64 64 61 56 46 27 14 10 11 11 12 13 15 16 17 17 19 20 21 22 25 26 25 23 21 19 22 28 34 36 38 43 46 46 48 47 44 42 41 39 36 34 31 28 25 21 18 16 14 13 12 12 12 12 12 13 14
101 101 101 101 97 96 97 93 89 90 90 97 102 91 81 77 71 65 66 65 62 54 36 19 12 10 11 12 13 14 16 17 18 17 18 21 23 25 26 25 25 23 20 20 26 33 37 38 41 45 47 48 50 49 47 47 47 46 45 42 38 33 27 22 18 17 15 13 13 13 13 13 13 14
101 102 101 97 94 97 100 96 92 93 94 98 101 93 84 80 73 66 67 68 66 60 45 26 15 10 10 12 14 14 15 16 18 18 18 20 22 24 25 25 26 25 21 21 24 30 35 38 39 42 46 49 51 52 52 52 52 52 51 49 47 42 35 28 22 19 17 14 14 14 13 14 14 14
99 100 98 94 95 99 100 99 99 99 99 99 99 97 96 93 83 72 72 73 70 64 52 35 21 13 10 12 14 15 15 15 17 19 19 19 21 22 23 24 26 26 23 22 24 27 31 37 38 38 43 48 51 53 54 52 51 51 52 53 54 50 44 35 27 22 19 16 15 15 14 14 15 14
99 99 98 97 98 99 100 101 99 98 99 99 99 99 99 100 95 87 83 80 74 67 57 45 33 21 12 11 13 15 15 14 16 19 20 20 20 19 21 24 26 26 25 24 24 26 29 34 37 36 38 43 47 49 50 49 47 50 53 57 60 58 52 43 33 26 22 18 16 16 15 15 15 15
86 93 100 101 100 100 101 101 98 97 100 100 99 99 97 98 101 98 91 85 77 67 58 52 45 32 18 12 12 14 16 15 15 17 20 21 21 18 20 24 25 25 27 27 26 26 28 32 35 35 35 39 43 46 48 48 48 50 53 56 60 62 58 52 42 32 25 20 18 17 17 16 16 16
68 72 83 93 100 102 100 101 101 99 100 100 100 101 100 98 100 100 94 86 77 68 63 59 52 40 26 16 11 12 16 17 15 16 19 21 22 20 20 23 24 25 28 30 28 26 28 31 33 34 34 37 41 45 49 51 51 52 53 53 56 60 61 59 52 41 31 24 20 19 18 17 17 17
68 60 58 66 84 97 99 100 100 97 98 100 100 101 100 98 100 99 94 88 78 69 67 66 59 48 36 24 15 11 14 17 16 16 18 19 21 22 22 23 23 23 28 33 31 28 29 31 32 34 34 37 41 45 50 54 55 55 54 54 54 56 60 64 61 52 39 29 23 21 20 19 18 18
79 61 46 43 56 76 88 92 93 93 92 92 95 100 100 98 99 98 92 87 80 73 71 71 65 55 44 31 20 13 11 15 18 18 18 18 19 22 24 24 24 23 25 31 32 30 29 30 33 34 34 37 41 45 50 55 57 57 56 56 57 58 59 63 66 63 52 38 27 23 22 21 20 19
83 67 54 46 41 48 63 74 80 82 80 79 87 98 100 96 95 93 86 81 79 76 75 75 70 62 52 38 25 16 11 12 16 18 18 17 17 21 24 25 26 26 24 26 31 32 30 30 32 34 34 35 38 42 48 54 56 56 56 57 60 63 64 64 67 70 65 52 37 27 24 23 22 21
80 71 63 54 40 32 38 48 57 64 68 72 81 94 101 97 90 83 77 76 80 82 81 78 74 70 63 47 30 18 11 11 15 17 18 19 17 20 24 26 26 27 25 25 29 32 29 28 32 34 34 36 37 38 43 50 53 53 54 56 59 65 69 70 72 75 75 68 52 37 29 27 24 23
75 65 52 42 33 24 22 26 33 45 57 65 76 92 102 98 88 79 71 71 80 86 83 78 77 78 74 60 41 22 10 11 18 19 17 19 19 19 23 26 26 27 27 27 28 30 28 28 31 34 34 35 37 38 40 44 47 50 52 54 57 64 69 72 76 81 84 81 70 53 40 33 28 25
67 50 32 25 24 19 17 16 18 28 47 63 74 89 101 101 93 84 72 68 76 83 81 80 84 84 77 67 56 37 16 11 22 27 21 19 21 22 22 23 25 27 28 29 30 30 28 27 29 32 33 33 35 37 38 40 41 46 49 51 53 59 65 70 76 84 89 91 86 72 55 42 34 29
53 38 26 24 24 22 22 19 14 18 36 57 72 85 99 104 96 84 75 70 74 79 80 81 84 77 64 55 52 45 27 15 20 31 30 24 22 22 21 21 24 25 25 28 31 32 31 30 30 30 31 31 33 35 36 36 38 41 45 48 51 55 61 67 73 82 90 95 96 88 71 53 42 36
45 35 28 26 25 29 36 34 25 18 23 46 72 86 93 98 93 82 76 74 75 79 81 80 76 66 54 44 37 35 35 30 24 26 33 36 34 31 24 20 21 21 20 24 30 33 34 34 33 32 31 32 32 34 34 35 36 37 40 45 50 52 57 65 73 83 93 95 97 97 87 68 52 43
48 38 32 30 30 37 46 46 41 28 17 34 71 88 86 88 89 81 78 81 81 78 76 74 69 59 50 41 29 25 38 48 35 21 26 39 47 48 41 29 21 20 20 21 26 31 35 38 40 38 36 35 34 35 36 36 38 38 39 43 48 50 56 67 77 86 95 97 96 99 97 82 64 52
55 44 39 37 33 37 47 51 51 43 25 26 59 85 86 81 80 79 81 83 76 64 61 63 61 54 46 38 29 28 44 55 39 18 20 37 50 57 57 45 29 21 21 23 26 29 32 37 42 44 44 44 42 42 44 44 45 46 45 47 54 56 61 73 83 89 95 99 97 99 101 94 77 62
58 48 44 42 38 41 51 54 50 46 35 26 42 71 83 79 77 77 72 61 50 47 53 59 54 45 38 35 32 34 41 42 28 15 18 32 45 57 64 58 43 28 24 26 27 28 30 34 39 45 50 53 53 56 61 62 64 68 69 67 71 75 77 83 91 94 98 101 99 99 102 100 89 73
47 39 38 39 39 37 41 43 34 31 37 32 29 47 63 64 61 56 44 36 36 42 53 58 50 37 32 35 37 33 26 20 18 18 19 24 38 56 66 65 54 41 35 33 30 28 28 29 32 38 45 54 65 73 76 79 84 91 94 90 87 90 94 96 97 98 101 102 100 98 101 102 96 83
35 32 30 29 29 25 26 28 20 22 39 39 23 22 30 31 28 24 21 26 32 37 45 51 47 38 38 45 50 41 28 23 25 27 25 23 37 58 69 68 60 51 49 51 47 38 30 26 34 46 53 65 81 85 82 88 96 99 100 100 95 92 97 101 99 97 100 102 100 98 100 103 100 90
31 31 27 25 27 24 21 25 28 37 47 37 18 12 14 13 12 13 17 22 22 21 25 30 30 29 35 50 60 51 35 28 25 27 29 29 35 52 65 67 62 56 58 67 70 65 50 31 33 53 67 73 82 86 85 94 104 101 98 101 99 93 96 102 100 96 99 102 100 98 100 102 102 95
33 31 29 28 27 26 31 43 53 54 43 24 14 14 14 12 13 16 23 28 24 18 17 17 17 17 27 50 64 51 34 27 20 17 23 24 25 40 57 60 55 53 62 75 81 82 73 49 39 57 71 65 65 75 84 93 101 100 94 95 97 96 99 101 98 96 99 102 100 99 100 102 103 99
34 33 32 29 27 35 53 63 55 39 25 16 15 16 13 13 15 17 25 34 38 38 33 24 17 14 22 45 56 40 32 35 28 22 29 29 24 34 54 65 64 62 72 86 86 82 79 62 43 48 60 58 59 72 83 90 96 97 93 94 99 100 99 99 98 97 100 102 100 99 100 101 103 102
40 36 31 27 31 50 67 59 35 24 24 24 22 19 17 16 15 14 19 28 40 52 51 43 35 24 17 24 31 28 34 42 35 30 38 38 29 28 39 56 70 75 84 94 92 83 77 63 47 52 70 75 70 69 71 78 89 96 96 98 102 100 96 98 100 100 100 101 100 99 100 100 102 102
46 38 29 23 36 61 67 46 27 31 39 34 28 26 24 20 17 16 18 25 40 55 58 60 64 53 34 25 26 28 36 40 31 23 25 28 31 30 29 41 63 78 86 95 98 91 79 61 53 64 77 75 65 61 66 78 91 99 100 100 99 97 97 99 101 100 100 101 101 100 100 100 101 102
55 42 26 20 41 66 63 41 36 45 46 37 30 27 24 21 18 15 17 31 51 58 51 52 65 69 63 56 46 38 40 39 28 20 18 20 27 34 39 51 71 84 90 97 100 96 82 68 67 78 82 76 75 80 88 95 99 101 102 101 98 97 99 100 100 100 100 101 101 101 101 101 101 102
57 41 21 20 46 64 55 43 46 48 41 33 29 25 23 23 19 14 21 42 58 54 42 50 68 76 77 76 67 55 47 35 25 25 26 22 24 35 50 66 82 91 96 99 98 91 81 78 85 96 98 95 96 97 98 100 100 100 102 101 98 98 100 101 100 100 100 101 101 101 101 101 101 102
50 33 18 25 45 53 47 45 45 36 29 27 24 23 24 23 17 15 30 53 61 48 41 58 74 74 76 84 80 63 46 35 33 41 39 27 25 37 53 69 85 93 97 98 97 91 85 85 91 97 98 98 100 100 100 101 100 100 101 100 98 100 101 100 100 101 100 100 101 101 101 101 101 100
30 18 14 28 44 47 44 42 35 25 23 23 21 22 27 25 18 20 38 59 60 42 37 56 70 70 80 92 81 56 45 45 48 48 41 29 27 37 55 77 93 96 96 99 100 97 94 94 98 100 99 98 100 101 100 99 99 100 101 100 99 100 101 100 100 101 100 100 101 101 101 101 101 100
14 10 13 27 42 44 39 32 24 20 20 20 19 24 27 22 17 23 41 58 53 34 38 65 81 82 90 95 77 53 49 54 50 42 38 37 37 44 63 85 94 90 91 99 101 98 98 99 100 101 99 98 100 101 100 99 99 99 100 100 100 100 100 100 100 100 100 100 100 101 101 102 101 100
9 8 10 18 27 29 25 20 18 19 19 20 25 31 30 23 20 28 47 58 45 28 40 74 88 82 85 93 85 67 59 54 43 31 28 34 44 54 70 89 94 89 89 96 99 99 101 101 100 100 101 101 101 100 99 99 100 99 100 101 101 100 100 100 100 100 100 98 98 101 103 102 100 99
Wind_Speed
18 19 20 21 20 20 19 18 18 19 19 19 20 20 20 21 21 21 21 21 21 21 21 21 21 21 21 20 20 19 18 17 17 17 16 16 17 17 18 18 18 19 19 20 21 22 23 24 24 23 24 25 25 26 27 28 30 31 32 34 35 36 38 39 40 42 43 44 46 49 50 51 52 54
20 20 21 22 22 22 22 20 18 18 19 19 20 21 21 21 21 21 21 21 21 21 22 22 22 21 21 21 21 20 20 19 18 17 17 17 18 18 19 19 19 19 19 20 22 23 24 24 24 23 23 24 25 26 28 29 30 31 32 34 35 37 38 39 40 42 43 44 46 48 50 51 52 54
22 22 22 23 23 23 23 23 21 19 19 20 21 22 22 22 22 22 22 21 21 21 22 22 22 22 22 22 21 21 21 20 19 18 18 18 18 19 20 20 19 19 20 21 22 23 23 24 24 23 23 24 25 27 28 29 30 31 33 34 35 37 37 38 40 41 42 43 45 47 49 51 52 53
23 22 22 23 23 24 24 25 24 22 20 20 21 22 23 23 23 22 22 21 21 21 21 22 23 23 23 23 22 22 21 21 21 20 19 18 19 19 20 20 20 20 20 21 21 22 23 24 24 24 24 24 26 27 29 30 31 31 33 34 35 37 37 38 40 41 42 43 45 46 48 50 52 53
24 23 22 22 23 24 25 26 26 25 22 21 21 22 23 24 24 23 22 22 21 21 22 22 23 23 23 23 23 22 22 22 22 21 20 19 19 20 20 20 20 20 20 21 21 23 24 25 25 25 25 25 26 28 29 30 31 32 33 34 35 36 37 38 39 41 41 42 44 46 47 49 51 52
27 25 23 23 23 23 25 26 27 28 26 22 21 22 23 24 24 24 23 22 22 21 22 22 23 24 24 23 23 22 22 22 22 22 21 20 19 20 20 20 20 20 20 21 22 23 24 25 26 26 26 26 28 29 30 30 31 32 33 34 35 36 37 38 39 40 41 42 44 45 46 48 50 51
30 28 26 26 25 24 25 26 27 29 29 26 23 22 23 24 25 25 24 23 22 22 22 23 23 24 24 24 23 23 22 22 23 23 22 21 20 20 20 20 20 20 20 21 22 23 24 25 26 26 27 27 29 29 30 30 31 32 33 33 35 36 37 38 39 40 41 42 43 45 45 47 49 50
32 30 29 28 28 27 26 27 27 28 30 29 26 24 23 24 25 25 25 24 23 23 22 23 24 24 24 24 23 23 22 22 23 23 23 22 21 20 20 21 21 21 21 22 23 24 24 25 26 27 28 28 29 29 30 30 31 32 33 33 35 36 37 38 38 39 40 41 43 44 45 46 47 49
35 32 32 31 29 28 28 28 28 28 29 31 29 26 24 24 25 25 26 25 24 24 23 23 24 24 25 25 23 23 23 23 23 23 23 22 21 21 20 21 22 21 21 22 23 24 25 26 27 28 28 28 29 29 29 30 31 32 33 34 35 36 37 38 38 39 40 41 42 43 44 45 46 47
36 34 34 33 31 30 29 29 29 29 29 31 31 29 25 24 25 26 26 26 25 25 24 24 24 25 25 25 24 23 22 23 23 23 23 23 22 21 21 22 23 22 22 23 24 25 26 27 28 28 28 28 29 29 29 30 31 32 33 34 35 36 37 37 38 39 40 40 41 43 43 44 45 46
38 36 36 35 34 32 30 30 30 30 29 30 32 31 27 25 25 26 27 27 26 26 25 25 25 25 26 25 24 23 22 22 23 23 23 23 23 23 22 23 23 23 23 24 25 26 27 28 28 28 28 28 28 29 30 30 31 32 33 34 35 36 37 38 38 39 39 40 41 42 43 43 44 44
39 38 37 37 36 35 33 33 32 31 30 31 32 32 29 27 26 27 27 28 27 27 26 26 26 26 26 26 25 23 22 22 23 24 24 23 24 24 24 24 24 24 24 25 25 26 27 28 28 28 28 28 28 29 30 30 31 32 33 34 35 36 37 38 38 38 39 40 40 41 42 42 43 43
39 39 39 38 37 37 36 35 34 32 31 32 32 32 31 28 27 27 28 28 28 28 27 26 26 27 27 27 25 24 23 22 23 24 24 24 24 25 25 26 26 25 25 25 26 27 28 28 28 28 28 28 29 29 30 31 32 33 34 34 35 36 37 38 38 38 39 39 40 40 41 42 42 42
41 40 41 39 38 39 38 37 35 32 31 32 32 33 32 30 29 28 29 29 29 29 28 27 27 27 28 28 26 25 24 22 22 24 25 25 25 26 26 27 27 27 26 26 27 28 28 28 28 28 28 29 29 30 30 31 32 33 34 35 36 37 37 38 39 39 39 39 39 40 40 41 41 41
43 42 43 41 40 40 40 39 36 32 32 33 32 32 33 33 31 30 29 30 30 29 28 28 28 28 29 29 28 27 25 23 23 24 25 25 26 26 27 27 27 28 28 26 27 28 29 29 28 29 29 29 30 31 31 32 32 33 35 36 37 37 38 38 39 39 39 39 39 39 40 40 41 41
41 43 45 44 42 41 41 40 35 31 33 34 32 33 36 36 34 32 30 30 31 30 28 28 28 29 30 30 30 28 27 25 24 24 25 25 26 27 28 28 28 29 29 27 27 28 29 29 29 29 29 29 30 31 31 32 33 34 36 37 38 39 39 39 39 39 40 39 39 39 39 40 40 40
39 42 46 46 42 41 41 40 35 32 34 34 35 38 39 38 37 34 32 31 31 30 29 29 29 29 30 31 31 30 29 28 27 25 25 25 26 27 29 29 28 29 30 29 28 28 29 30 30 30 30 30 30 31 32 33 34 36 37 39 39 39 39 39 39 39 40 39 39 39 39 39 39 39
37 39 43 44 42 41 42 40 35 34 35 36 37 40 40 39 39 37 34 33 31 30 29 29 30 30 30 31 33 32 31 30 29 27 26 26 27 28 29 29 29 30 31 31 30 29 29 30 32 31 30 31 31 32 34 35 36 37 38 39 39 40 39 39 39 39 40 39 39 39 39 39 39 39
37 38 40 42 43 43 42 38 35 35 36 37 37 38 38 38 38 38 35 32 31 30 29 30 31 31 31 32 34 34 34 32 31 30 28 27 28 29 29 30 30 31 32 32 32 31 30 30 32 33 32 32 33 33 35 36 36 37 38 38 39 39 40 39 39 39 39 39 39 39 39 39 38 38
35 36 37 40 42 43 40 36 35 37 38 37 37 37 37 37 36 35 33 31 31 30 30 32 33 33 32 33 34 35 35 35 33 32 31 29 29 30 30 30 31 31 32 33 34 33 32 31 33 34 33 33 33 34 34 36 37 37 38 38 39 39 40 40 40 39 39 39 38 38 38 38 38 38
37 35 36 39 41 41 39 38 39 40 37 36 37 38 36 36 35 32 30 30 31 31 32 33 34 34 34 35 35 36 36 37 36 35 33 32 31 31 30 31 32 32 32 34 36 35 34 34 34 35 35 34 34 34 34 36 37 37 38 39 39 40 40 40 40 40 39 39 38 38 38 38 38 37
42 39 39 41 42 42 40 41 43 43 38 36 38 39 37 34 32 30 29 32 33 33 33 34 35 36 36 37 37 36 37 38 38 37 35 34 33 32 32 33 33 33 32 34 37 37 35 35 36 36 37 36 36 36 36 36 37 38 38 39 40 41 41 41 41 41 40 39 39 38 38 38 37 37
46 43 42 43 43 42 42 43 43 43 42 40 40 40 38 34 30 29 31 34 35 35 35 36 36 37 38 38 38 38 37 38 38 38 37 37 35 33 33 34 34 34 33 34 37 39 36 36 37 38 39 38 37 37 37 37 38 39 39 40 40 41 41 41 41 42 41 40 39 38 38 38 38 37
49 48 46 44 43 43 44 44 43 44 45 43 41 42 41 36 32 32 34 36 37 37 37 37 37 38 40 40 39 39 38 38 39 39 39 38 37 34 34 35 35 36 36 34 36 39 39 37 37 39 40 41 40 39 38 38 39 40 40 41 41 41 42 42 42 42 42 41 40 39 38 38 38 37
53 51 48 46 45 45 46 45 45 45 45 43 42 43 43 41 39 37 37 38 39 40 39 38 39 41 42 42 40 39 39 39 40 40 39 38 37 35 34 36 36 37 37 35 35 40 41 38 38 39 41 41 43 43 41 40 40 41 42 42 42 42 42 42 42 42 43 42 41 40 39 39 38 38
55 52 50 48 46 47 48 47 46 46 46 45 43 43 44 45 44 41 41 41 41 41 41 41 41 41 41 41 40 39 39 40 40 40 39 37 37 36 36 37 38 38 38 36 36 40 42 40 39 40 41 42 43 45 44 43 42 42 43 43 43 43 43 44 43 43 43 43 42 41 40 39 39 38
56 53 51 49 48 48 49 48 46 46 46 46 44 43 44 45 44 43 44 44 44 43 43 41 39 38 38 40 41 40 40 40 40 39 39 38 37 36 37 38 38 39 39 37 37 41 43 42 40 41 42 43 43 45 46 46 44 43 44 45 46 45 45 45 45 45 44 44 43 43 41 39 39 38
56 54 53 51 50 50 50 48 47 45 45 46 45 44 44 44 45 44 44 45 44 43 42 41 40 40 41 41 42 42 41 40 39 39 40 38 36 36 37 38 38 39 40 38 38 41 43 43 43 43 43 44 44 45 46 47 46 45 45 47 48 48 47 47 47 47 46 45 45 44 42 40 39 38
58 58 57 54 53 52 50 49 48 47 46 48 48 46 46 46 45 44 44 45 45 45 45 46 45 44 44 44 44 44 41 40 40 40 41 39 36 35 36 36 37 39 39 39 40 42 44 45 45 44 45 45 45 45 47 48 48 47 46 47 50 50 49 49 49 48 47 47 46 45 43 41 39 39
61 61 61 59 57 55 52 50 50 49 49 50 49 47 47 47 46 45 45 47 48 48 49 49 48 47 48 47 46 44 43 42 41 41 42 42 40 38 36 36 37 38 38 39 40 42 44 45 46 46 46 46 46 45 47 48 49 49 49 49 51 52 51 50 50 50 49 48 48 47 44 41 39 39
63 65 65 64 61 58 54 52 51 50 51 52 51 48 46 46 46 47 48 49 50 49 49 50 51 50 51 49 46 44 45 45 44 43 42 44 45 44 41 39 38 37 38 39 41 43 44 45 46 46 46 47 46 45 46 48 48 49 50 51 52 53 53 51 51 53 52 50 50 49 46 43 40 39
67 68 68 66 63 60 58 57 55 54 53 53 53 51 49 48 48 50 51 52 52 50 50 51 51 51 50 48 45 44 46 46 46 45 43 44 47 47 45 42 40 39 38 39 41 44 45 46 47 47 47 47 46 45 45 46 47 49 51 53 53 54 55 54 54 55 55 52 51 50 48 44 41 39
70 70 68 66 63 62 62 61 59 57 55 55 55 54 53 53 53 53 53 52 51 51 51 51 50 49 48 47 45 45 45 46 47 47 44 45 47 47 44 43 43 41 40 39 41 44 46 46 47 48 48 48 47 46 45 46 48 50 53 56 56 55 58 60 58 57 57 54 52 51 48 46 43 40
71 68 66 65 64 63 63 62 59 57 56 56 56 56 55 55 54 54 52 51 51 52 51 50 48 47 47 46 45 46 46 46 47 47 45 45 47 46 43 43 44 44 42 41 41 43 45 46 47 48 49 49 48 48 47 48 51 53 56 59 59 58 60 63 61 59 58 55 52 51 49 47 44 42
69 67 65 64 64 63 62 61 58 56 55 55 55 55 54 54 53 52 51 50 51 52 51 49 48 47 47 47 47 47 47 47 48 48 46 46 47 46 46 46 47 47 46 45 43 44 46 47 47 48 50 51 50 49 49 51 53 56 59 60 60 60 62 63 62 61 60 57 53 51 50 48 45 43
66 65 65 64 62 62 62 59 55 51 51 52 53 53 53 52 52 51 50 50 50 51 50 49 48 48 48 48 47 48 48 48 49 49 47 47 48 48 49 49 49 50 50 49 48 48 48 48 48 49 51 53 52 50 50 52 55 58 59 59 59 61 63 63 61 62 62 59 54 52 50 49 47 44
64 65 66 64 62 61 60 56 50 48 49 51 52 53 54 53 51 51 51 50 50 49 49 48 48 49 49 49 48 49 49 48 50 50 49 48 49 49 50 52 52 52 53 53 52 52 51 50 49 49 51 53 53 52 53 55 56 58 59 61 60 60 61 61 61 63 64 61 56 52 51 50 47 44
63 65 65 64 62 61 58 54 49 48 49 51 52 53 54 53 52 52 52 52 52 51 49 49 48 48 49 49 49 50 49 49 50 51 50 49 50 50 51 52 53 55 56 56 55 54 53 52 50 49 51 54 56 56 56 57 57 58 61 63 62 60 60 62 63 64 65 61 56 53 52 51 48 44
64 66 65 64 63 61 57 54 51 48 49 50 51 53 53 53 54 54 53 52 53 52 51 50 49 48 49 50 50 50 50 50 51 52 52 51 51 51 52 53 54 56 56 55 55 55 55 53 51 50 53 57 59 58 58 58 58 60 61 62 61 62 63 64 64 64 63 59 55 53 52 51 48 45
66 67 67 65 64 61 57 54 51 50 51 52 52 53 53 53 54 55 53 53 53 52 51 51 51 51 51 50 50 50 51 51 51 52 52 51 51 52 53 54 54 53 52 52 55 57 57 55 53 51 53 57 59 59 59 59 59 61 61 62 63 65 65 63 62 63 61 57 54 53 52 51 48 46
68 70 68 66 65 62 58 55 54 54 54 53 53 53 53 53 54 54 54 53 52 51 51 51 51 52 53 52 51 51 52 51 50 50 51 51 51 52 53 53 52 51 52 54 55 56 57 56 54 53 56 59 61 61 61 61 60 61 62 63 65 66 65 62 62 63 61 57 54 53 51 50 49 46
71 71 69 67 66 62 58 57 58 57 55 53 53 53 52 52 53 54 55 53 51 49 50 50 51 53 54 52 50 50 51 50 49 50 51 51 51 51 52 53 52 53 55 56 55 55 56 55 55 57 61 63 62 63 64 64 63 63 64 65 67 66 64 62 62 62 60 56 54 52 51 50 49 46
71 70 68 67 65 62 60 61 60 57 54 53 53 53 52 52 53 54 54 53 50 49 49 49 50 53 53 49 48 50 51 49 49 51 52 52 53 52 52 52 52 54 56 56 54 54 55 55 56 58 61 60 61 62 63 63 65 66 66 66 66 65 63 62 63 62 58 55 52 52 51 51 49 45
69 68 66 65 65 63 62 61 59 56 54 53 53 53 52 52 53 54 55 54 51 49 48 47 47 49 48 47 48 51 51 50 51 52 52 53 53 53 52 52 53 55 55 55 55 55 56 56 57 58 58 58 59 59 59 61 64 67 66 65 65 64 64 66 65 61 56 53 51 51 51 50 48 45
66 65 63 62 61 61 60 59 56 55 53 52 52 52 52 52 53 54 55 54 51 49 49 49 48 48 47 49 51 52 52 52 54 54 53 53 53 53 53 54 55 56 56 57 58 57 58 59 59 60 61 59 56 55 57 61 64 66 66 67 67 67 68 67 63 58 53 51 51 51 51 49 47 44
Wind_Direction
292 294 296 300 305 310 315 323 332 338 341 341 339 337 336 335 333 332 334 335 334 332 330 328 326 325 323 322 320 319 320 322 323 324 325 326 326 326 327 329 330 332 333 334 334 332 331 331 332 331 329 327 326 327 329 331 333 335 337 338 339 341 342 344 344 345 347 349 350 351 352 351 349 349
289 291 293 295 299 303 307 314 324 332 337 340 339 337 336 335 333 332 332 332 332 330 328 326 325 324 322 321 320 319 319 321 322 323 323 323 323 323 324 327 329 330 332 333 333 333 331 330 331 330 327 326 326 328 330 332 334 335 337 338 338 340 342 343 344 345 347 349 350 352 353 351 350 351
284 287 290 293 296 300 303 308 316 324 331 336 338 336 335 335 333 332 331 330 329 328 327 325 324 323 322 321 320 319 319 320 321 321 321 321 321 321 323 325 327 329 330 332 332 331 330 329 329 328 326 326 328 329 331 333 334 336 337 337 338 340 342 343 344 345 347 348 350 352 353 351 351 353
276 281 286 290 295 298 301 305 311 318 326 332 336 336 335 335 334 331 328 326 326 326 326 324 323 322 321 321 321 320 320 319 320 320 319 319 319 320 322 324 326 327 329 330 329 329 329 328 329 328 328 328 329 331 332 334 334 335 336 336 337 339 341 342 343 344 346 348 349 352 353 352 351 354
268 272 279 285 290 295 299 302 307 313 320 327 332 334 335 334 332 329 326 325 324 324 324 323 322 321 321 321 321 321 320 319 319 318 318 317 317 319 321 323 325 326 326 326 325 325 326 327 328 329 330 331 331 332 333 333 334 335 335 336 337 339 340 342 343 344 346 347 348 351 353 352 352 354
262 266 271 277 283 289 295 299 303 308 313 319 326 330 333 333 331 329 325 324 324 322 321 322 321 320 320 321 321 321 321 319 318 317 316 315 316 318 320 322 323 323 322 321 321 322 323 325 326 328 331 332 332 332 333 333 333 334 334 335 336 338 339 341 342 343 345 346 347 351 353 352 352 354
259 263 269 273 277 283 289 294 298 303 307 313 318 323 328 330 330 329 326 324 323 322 320 320 320 320 320 320 320 321 321 319 317 315 314 314 315 317 319 319 319 319 318 317 318 320 322 324 325 328 330 331 331 332 332 332 333 333 333 334 336 337 339 340 341 342 344 345 347 349 352 353 352 354
257 262 267 270 274 279 284 289 293 298 302 306 311 316 322 327 329 328 326 324 322 322 321 319 319 320 319 319 319 321 321 319 316 313 313 314 315 316 316 315 315 316 316 316 318 320 323 324 325 328 330 331 330 330 330 331 332 332 332 334 335 337 338 339 340 341 343 344 346 348 351 352 352 353
257 260 266 269 271 273 279 284 288 292 297 301 305 310 316 323 327 328 326 325 322 322 321 319 318 318 319 319 319 321 321 318 314 312 312 314 315 315 314 313 313 314 315 316 319 321 323 324 326 328 330 330 330 329 330 331 331 332 332 333 334 336 337 338 339 340 341 343 344 346 349 352 352 353
256 260 266 270 270 269 272 278 282 287 292 297 300 305 311 318 324 326 326 325 323 321 321 319 317 317 317 318 319 320 320 317 313 311 312 314 315 314 312 311 311 313 315 317 319 322 323 324 326 328 330 330 330 329 329 330 331 331 331 332 334 335 336 337 338 339 340 342 343 345 347 350 352 352
256 258 265 270 272 270 270 273 279 284 289 293 296 300 305 312 319 323 326 325 323 321 320 318 317 316 315 316 318 319 318 316 313 311 312 314 314 313 312 311 311 313 315 317 319 321 322 324 326 328 329 330 330 330 330 330 331 331 331 332 333 334 334 335 337 337 339 340 341 343 345 348 351 352
259 257 262 269 272 271 270 273 277 281 286 289 292 295 300 307 313 319 323 324 324 321 319 318 317 315 314 314 316 317 316 315 314 311 311 313 313 313 312 311 311 312 314 316 317 320 322 324 325 327 328 330 330 330 330 331 331 330 330 331 332 333 334 334 335 336 337 338 339 341 344 346 349 351
262 258 259 266 269 269 271 273 276 279 283 286 288 291 296 303 308 313 318 321 322 321 319 318 317 315 314 313 313 314 313 314 313 311 311 312 313 313 312 312 312 312 313 314 316 318 321 323 324 325 327 329 330 330 331 331 331 330 330 331 331 332 333 333 334 335 336 336 338 339 342 344 347 350
263 259 258 261 265 267 270 273 275 277 280 282 286 289 293 298 303 307 312 316 319 319 318 317 315 315 313 312 311 310 310 311 311 309 310 311 311 312 312 312 312 311 311 312 315 317 319 321 322 322 324 327 328 329 330 330 330 330 330 330 331 332 332 333 333 334 334 335 336 337 340 342 345 348
264 262 258 257 260 263 267 271 273 275 275 276 279 286 291 294 298 302 307 311 314 316 317 316 314 313 313 312 310 307 306 308 308 307 308 309 310 310 310 312 312 310 309 310 313 315 317 319 320 319 321 324 325 326 328 328 330 331 330 330 331 331 332 332 332 333 333 333 334 336 338 340 343 346
264 262 256 253 256 260 264 269 271 273 274 272 276 284 289 290 293 298 302 306 310 313 314 315 313 312 313 312 310 307 304 304 304 304 305 307 308 308 308 311 312 309 308 309 310 313 314 316 317 317 318 321 322 324 325 327 329 330 330 330 330 330 331 331 331 331 332 332 332 334 336 338 340 343
265 260 253 251 253 257 262 268 270 271 273 274 277 283 286 287 290 295 299 302 305 309 313 314 313 313 312 312 310 307 304 301 301 303 304 305 306 305 306 309 311 308 307 308 308 309 312 313 314 315 317 319 320 322 323 324 326 328 328 328 328 329 329 330 330 330 330 330 331 332 333 335 338 340
267 260 252 249 251 255 260 263 266 268 271 273 276 279 283 285 288 292 296 298 301 305 311 314 314 314 313 311 309 307 304 301 299 300 302 303 303 303 304 307 309 307 306 307 307 307 309 311 311 313 315 316 318 320 321 322 324 325 326 326 327 327 328 328 329 329 329 329 329 330 331 333 335 337
266 263 255 249 250 255 258 259 261 265 269 272 275 278 280 281 283 288 291 294 297 302 308 314 316 315 312 309 308 307 305 302 300 298 300 302 301 301 303 306 306 306 306 306 306 306 308 310 310 311 314 314 315 318 320 321 323 325 325 326 327 327 327 327 327 327 327 327 328 328 329 330 332 334
262 264 261 256 254 256 256 255 257 262 269 274 277 278 279 277 278 283 288 291 295 300 306 312 315 314 312 308 307 307 306 304 301 298 298 300 300 300 303 303 303 305 306 306 305 305 307 309 309 310 312 313 314 317 320 321 322 324 325 325 326 326 326 326 326 326 326 325 326 326 327 328 329 331
261 261 262 261 259 258 258 257 257 261 269 278 282 280 278 277 277 282 287 290 293 298 305 310 313 313 312 309 306 306 306 305 303 300 297 297 297 300 301 301 301 304 306 304 304 306 307 308 308 309 310 312 313 316 318 320 320 322 323 324 324 325 325 326 325 324 324 324 323 324 325 325 327 328
262 262 261 261 260 261 261 261 262 261 264 275 284 282 277 276 278 281 284 287 290 296 303 307 309 311 312 309 306 305 305 305 304 302 298 295 295 298 299 299 300 302 304 303 303 305 306 307 307 307 308 310 312 313 316 318 319 320 322 322 323 323 324 325 325 324 323 322 322 322 323 323 324 325
261 261 261 261 262 264 264 265 267 265 262 271 283 283 276 275 278 279 280 284 288 293 299 304 306 308 309 308 305 304 304 304 303 302 298 295 294 295 296 298 299 300 301 301 301 303 305 305 306 306 307 308 309 310 313 315 316 318 320 321 321 322 323 324 324 324 322 321 320 320 321 321 322 323
259 259 260 262 265 267 267 267 269 268 267 273 282 282 277 273 272 273 277 282 285 289 295 300 302 304 305 305 304 303 301 302 302 300 299 296 294 293 293 294 295 297 298 300 301 301 302 304 304 304 306 307 307 308 309 311 313 315 317 318 319 321 321 322 323 323 322 320 319 318 319 319 320 320
257 258 260 262 265 266 267 267 268 268 269 272 277 281 279 274 270 271 275 279 283 287 291 295 297 299 300 301 301 300 299 300 299 298 298 296 294 292 290 290 291 293 296 300 301 299 300 303 303 302 303 305 305 306 307 308 310 312 314 315 316 318 319 320 322 322 321 320 318 317 317 317 317 317
255 257 259 261 263 264 265 267 267 268 269 270 273 279 281 276 275 276 277 278 281 284 286 290 293 296 298 298 298 298 298 298 298 297 297 296 293 291 288 287 289 291 294 298 299 297 298 301 302 300 301 302 303 304 305 306 307 309 310 311 312 314 315 317 319 320 320 319 317 315 315 315 314 314
254 256 258 259 261 264 265 266 267 269 269 269 271 278 281 277 275 276 278 280 283 284 286 290 293 295 297 297 297 296 296 296 296 296 296 295 293 291 288 287 289 291 293 296 296 294 295 298 299 298 299 300 301 302 303 304 305 307 308 309 309 310 311 313 314 316 317 317 316 315 313 313 312 311
254 256 257 258 260 263 265 268 270 271 271 271 272 275 277 276 275 275 278 283 286 286 287 289 292 294 294 295 296 295 294 294 294 293 293 293 294 293 290 289 289 289 291 294 294 293 294 295 296 296 297 298 299 300 301 302 304 305 306 306 306 307 309 310 311 312 313 313 314 313 312 310 309 309
256 257 257 258 260 262 265 269 272 273 275 276 275 272 270 272 275 276 278 282 284 285 286 289 291 292 292 292 293 292 292 292 292 290 289 289 292 295 294 292 291 290 291 293 293 292 293 293 294 294 295 296 297 298 300 301 302 304 305 304 304 305 307 308 309 309 310 310 311 311 310 308 308 307
258 258 258 259 260 261 264 267 271 274 276 277 278 274 270 270 273 276 278 281 283 285 287 289 290 291 290 290 290 289 288 288 288 288 287 287 288 291 295 296 294 293 292 292 291 291 292 292 293 293 294 294 295 297 298 299 301 302 303 303 302 303 305 306 307 307 308 309 309 309 308 307 306 305
259 259 259 259 260 262 263 266 270 274 275 277 279 278 275 272 273 276 279 281 283 285 287 288 288 289 289 289 288 287 286 285 285 287 288 287 285 286 290 295 297 295 293 292 290 290 291 292 292 293 293 293 294 296 297 298 299 301 301 301 301 302 304 306 306 306 308 309 309 309 308 306 305 303
258 258 259 260 261 263 264 267 271 273 274 275 276 277 277 276 275 277 280 282 283 284 285 285 286 286 287 287 286 284 283 283 284 286 287 287 286 284 285 290 295 296 295 293 291 290 290 291 292 292 293 292 293 294 296 297 299 300 299 299 300 302 304 305 305 306 307 309 309 309 308 306 303 301
256 257 259 261 263 264 266 269 271 273 273 273 274 274 275 276 277 278 280 282 283 283 282 283 285 285 284 283 283 283 282 282 284 285 286 287 287 285 284 287 290 293 296 296 294 292 291 290 291 292 292 292 292 294 296 297 298 298 298 298 300 303 304 305 307 308 308 308 308 309 309 306 303 300
255 258 261 263 265 267 268 269 271 271 271 271 271 272 273 275 277 279 280 281 282 281 281 282 283 283 282 281 281 282 282 282 284 285 286 287 286 285 284 285 287 290 293 297 298 295 293 290 290 290 291 291 292 294 295 296 297 297 297 298 301 305 306 306 308 311 310 308 308 310 309 306 303 299
256 259 262 264 267 268 269 270 271 270 268 268 269 271 273 275 276 278 279 280 280 280 279 280 281 282 281 281 281 281 282 283 284 285 286 286 286 285 283 284 286 287 290 294 297 297 294 292 289 288 289 289 290 292 295 296 296 296 296 298 302 306 306 305 308 310 308 307 309 309 308 305 302 298
258 261 264 266 268 269 271 272 270 266 263 265 268 270 272 273 275 277 279 279 279 279 279 279 280 280 279 278 279 280 282 283 284 284 284 285 286 285 283 283 285 286 286 289 293 295 295 294 290 287 287 288 289 292 294 294 294 294 295 298 302 304 305 305 306 305 304 305 309 309 306 304 301 298
258 262 265 267 268 270 272 270 265 262 262 264 267 269 271 273 274 276 277 278 279 280 280 279 279 278 277 275 277 279 281 282 283 283 283 284 286 285 282 281 282 284 284 286 288 292 295 295 291 288 287 288 289 291 291 291 292 293 295 297 301 304 304 304 303 301 301 304 308 308 305 303 300 298
260 264 266 267 269 270 270 266 262 262 265 266 267 268 271 273 274 275 276 278 280 281 281 280 278 276 274 274 275 278 280 281 282 283 283 283 285 285 283 280 280 281 281 281 283 289 294 295 294 291 288 288 289 288 288 289 291 293 295 298 301 302 302 302 301 301 301 304 307 307 304 302 300 297
262 266 267 268 269 269 266 262 262 265 268 270 269 270 271 272 273 274 276 278 280 280 280 280 280 278 276 275 276 277 279 279 281 282 284 284 284 283 283 283 282 280 279 278 281 287 292 295 294 289 286 285 286 287 289 291 291 293 296 298 298 298 300 301 302 301 301 303 306 305 303 301 300 297
262 266 267 267 268 267 262 259 261 268 272 273 272 271 272 272 273 274 276 277 277 277 277 279 280 280 278 277 277 277 277 278 280 282 283 283 283 283 283 283 282 280 278 277 280 285 289 292 293 289 285 285 287 289 292 293 292 293 294 295 296 297 299 301 302 301 301 303 304 303 301 300 298 296
261 264 266 266 267 265 259 258 264 272 274 273 272 272 272 272 273 274 275 275 275 275 277 279 280 282 281 279 276 275 275 277 279 280 281 282 282 282 284 284 282 280 278 278 281 285 287 290 292 288 284 284 286 289 292 294 294 293 293 295 297 298 298 299 300 299 300 302 303 301 300 298 296 295
261 263 264 264 264 262 259 262 269 273 272 271 272 272 271 272 273 273 273 274 274 274 276 278 280 283 283 279 274 272 274 275 276 278 279 280 279 281 283 283 281 279 279 279 280 281 282 284 285 281 279 282 286 290 293 294 294 293 294 296 298 297 295 295 297 298 299 301 301 299 297 296 295 295
260 261 261 261 261 260 262 267 270 271 270 270 271 271 271 271 272 272 273 273 272 273 276 280 283 283 280 275 272 272 274 274 275 277 278 279 278 279 281 281 280 280 281 281 281 280 279 280 281 280 280 282 285 288 291 293 294 294 295 295 296 295 293 292 294 296 299 300 299 296 295 295 295 294
259 259 260 260 260 261 265 268 269 269 269 270 270 270 270 270 270 271 271 270 271 273 275 279 285 286 279 271 271 274 275 275 276 277 277 277 277 279 280 280 280 281 282 283 283 282 281 281 282 283 283 283 284 286 290 292 292 293 293 293 294 294 292 290 292 296 298 297 295 294 294 295 294 293
258 259 260 261 261 263 265 267 267 268 269 269 269 269 270 270 270 270 269 269 270 272 273 276 284 288 281 272 270 273 274 275 276 276 275 275 276 278 280 280 280 281 283 284 284 283 283 283 282 283 283 284 285 288 289 290 290 290 290 291 292 291 289 289 292 295 295 294 293 293 294 294 293 292